STARLINK-4476, 53419

Orbit data source: Space-Track

STARLINK-4476, 53419 is a payload satellite owned by SpaceX/Seattle (US) in LEO that was launched on Wed, 10 Aug 2022 UTC via an FALCON 9 launch vehicle from the Air Force Eastern Test Range (AFETR). Payload-class satellites include a variety of spacecraft equipped with specific instruments for various scientific and technological missions. These include communications satellites like Starlink; space stations such as the ISS; scientific satellites like the Hubble; Earth observation satellites from companies like Planet Labs, Umbra, and HawkEye 360; GPS; miniature CubeSats for education and research; and military/defense satellites.

Loading next visibility...
Identifier
53419, 2022-097AH
Orbit
LEO
Country
Flag of USUS
Related business
Manufacturer
SpaceX/Seattle
Mission
Operational Commercial Communications
Bus & Motor
STARLINK, Unknown motor
Mass
297 kg wet, ~275 kg dry
Launch date (UTC)
2022-08-10 (4 years ago)
Launch vehicle
FALCON 9
Launch site
Air Force Eastern Test Range (AFETR)
Object type
Payload
Rocket body
Debris
Shape & HBR
Box + 1 Pan, 10.1 m
Radar Cross Section
13.562 m², Large (>1 m²)

Expand to show TLE details & history
Last TLE update: 21 hours ago

TLE from 21 hours ago
0 STARLINK-4476
1 53419U 22097AH  26144.13130588  .00000281  00000-0  35732-4 0  9993
2 53419  53.2172 135.4483 0001265  78.3491 281.7643 15.08838179210013
Epoch: 2026-05-24T03:09Z
TLE epoch observation values (Epoch: 2026-05-24T03:09:04.828Z)
Latitude
-0.00001°
Longitude
-153.55968°
Altitude
540.468 km
Speed
7.593 km/s
True Right ascension
09h 01m 47s
True Declination
0° 00' 00"
Sunlit
Object was in daylight at epoch
Visualization orbit readout
Latitude
Unknown
Longitude
Unknown
Altitude
Unknown
Speed
Unknown
Apparent Right ascension
Unknown
Apparent Declination
Unknown
Sunlit
N/A
Visualization observer readout
Local Sidereal Time
09:44:10
Azimuth
Unknown
Elevation
Unknown
Doppler factor
Unknown
Orbital elements
Apogee altitude
540.869 km
Perigee altitude
539.119 km
Semi-major axis
6,918.131 km
Eccentricity
0.00013
Inclination
53.2172°
RAAN
135.4483°
Arg. of periapsis
78.3491°
True anomaly
281.75011°
Mean anomaly
281.7643°
Eccentric anomaly
281.7572°
Mean motion
3.7719 °/min
Orbital period
95.44 mins
BSTAR
0.000035732
Loading maneuver chart data...
Computing Atmospheric mass density...
Loading historical data...
Loading historical data...
Loading historical data...
Loading historical data...
Loading historical data...
Loading historical data...
Loading historical data...

Documentation

Showing up to 5 results
|